Truth Or Consequences, NM

9:00 PM MDT on September 18, 2019 (GMT -0600)
Truth Or Consequences Municipal

Weather History for KTCS - August, 2019

Change the Weather History Date:

Friday, August 23, 2019

  Actual Average Record
Temperature  
Mean Temperature 83 °F -  
Max Temperature 96 °F 89 °F 98 °F (2011)
Min Temperature 70 °F 64 °F 60 °F (2014)
Cooling Degree Days 18    
Month to date cooling degree days 415  
Year to date cooling degree days 1635  
Since 1 June cooling degree days 1437  
Growing Degree Days 33 (Base 50)    
Moisture  
Dew Point 47 °F    
Average Humidity 31    
Maximum Humidity 53    
Minimum Humidity 13    
Precipitation  
Precipitation 0.00 in - 0.14 in (2017)
Month to date precipitation 1.19  
Year to date precipitation 3.37  
Sea Level Pressure  
Sea Level Pressure 29.79 in    
Wind  
Wind Speed 6 mph ()    
Max Wind Speed 23 mph    
Max Gust Speed 31 mph    
Visibility 10.0 miles    
Events Thunderstorm    
T = Trace of Precipitation, MM = Missing Value Source: Averaged Metar Reports

Daily Weather History Graph

Daily Weather History Graph

Search for Another Location

Airport or City:

Astronomy

Aug. 23, 2019 Rise Set
Actual Time 6:37 AM MDT 7:45 PM MDT
Civil Twilight 6:11 AM MDT 8:11 PM MDT
Nautical Twilight 5:40 AM MDT 8:41 PM MDT
Astronomical Twilight 5:09 AM MDT 9:13 PM MDT
Moon No Moon Rise 1:54 PM MDT (8/23)
Length of Visible Light 13h 59m
Length of Day
13h 08m
Waning Gibbous, 49% of the Moon is Illuminated
Aug 23
Waning Gibbous
Aug 30
New
Sep 5
First Quarter
Sep 13
Full
Sep 21
Last Quarter

Hourly Weather History & Observations

Time (MDT) Temp. Heat Index Dew Point Humidity Pressure Visibility Wind Dir Wind Speed Gust Speed Precip Events Conditions
12:53 AM 78.1 °F - 48.9 °F 36% 29.72 in 10.0 mi WNW 11.5 mph - N/A   Clear
1:53 AM 78.1 °F - 48.0 °F 35% 29.71 in 10.0 mi WNW 6.9 mph - N/A   Clear
2:53 AM 78.1 °F - 48.0 °F 35% 29.73 in 10.0 mi WSW 4.6 mph - N/A   Clear
3:53 AM 77.0 °F - 48.0 °F 36% 29.74 in 10.0 mi SSW 4.6 mph - N/A   Clear
4:53 AM 73.0 °F - 51.1 °F 46% 29.75 in 10.0 mi Calm Calm - N/A   Partly Cloudy
5:53 AM 73.0 °F - 54.0 °F 51% 29.77 in 10.0 mi South 5.8 mph - N/A   Clear
6:53 AM 72.0 °F - 54.0 °F 53% 29.80 in 10.0 mi West 3.5 mph - N/A   Mostly Cloudy
7:53 AM 73.9 °F - 55.0 °F 52% 29.81 in 10.0 mi NE 3.5 mph - N/A   Clear
8:53 AM 77.0 °F - 55.9 °F 48% 29.82 in 10.0 mi Calm Calm - N/A   Clear
9:53 AM 80.1 °F 80.1 °F 55.0 °F 42% 29.83 in 10.0 mi Calm Calm - N/A   Clear
10:53 AM 84.0 °F - 52.0 °F 33% 29.82 in 10.0 mi Calm Calm - N/A   Clear
11:53 AM 89.1 °F - 48.9 °F 25% 29.80 in 10.0 mi ESE 6.9 mph - N/A   Clear
12:53 PM 91.9 °F - 44.1 °F 19% 29.76 in 10.0 mi NE 3.5 mph - N/A   Clear
1:53 PM 93.0 °F - 39.9 °F 16% 29.74 in 10.0 mi North - - N/A   Clear
2:53 PM 93.9 °F - 39.9 °F 15% 29.70 in 10.0 mi ESE 5.8 mph 16.1 mph N/A   Clear
3:53 PM 96.1 °F - 37.0 °F 13% 29.68 in 10.0 mi Calm Calm - N/A   Clear
4:53 PM 88.0 °F - 45.0 °F 22% 29.70 in 10.0 mi NW 19.6 mph 28.8 mph N/A   Scattered Clouds
5:05 PM 88.0 °F - 45.0 °F 22% 29.99 in 10.0 mi NW 20.7 mph 31.1 mph N/A   Scattered Clouds
5:53 PM 89.1 °F - 39.0 °F 17% 29.70 in 10.0 mi NNW 9.2 mph 17.3 mph N/A   Partly Cloudy
6:53 PM 90.0 °F - 37.0 °F 15% 29.71 in 10.0 mi NW 10.4 mph - N/A   Clear
7:53 PM 86.0 °F - 44.1 °F 23% 29.72 in 10.0 mi WNW 11.5 mph - N/A   Clear
8:53 PM 84.0 °F - 46.0 °F 26% 29.73 in 10.0 mi NW 9.2 mph - N/A   Clear
9:53 PM 84.9 °F - 44.1 °F 24% 29.77 in 10.0 mi SW 6.9 mph - N/A   Clear
10:15 PM 84.0 °F - 44.1 °F 25% 30.06 in 10.0 mi SSW 5.8 mph - N/A Thunderstorm Clear
10:30 PM 81.0 °F - 51.1 °F 35% 30.07 in 10.0 mi SE 3.5 mph - N/A   Clear
10:53 PM 82.0 °F - 48.9 °F 31% 29.79 in 10.0 mi South 5.8 mph - N/A   Clear
11:53 PM 78.1 °F - 54.0 °F 43% 29.79 in 10.0 mi South 17.3 mph 21.9 mph N/A   Partly Cloudy